This is the latest recevied weather packets stored in our database for station/object SQ3VAS-10. If no packets are shown the sender has not sent any weather packets the latest 10 day(s).
| Time | Temp. | Humidity | Pressure | Rain* | Wind** | Luminosity | Snow |
|---|---|---|---|---|---|---|---|
| 1778051432 | 11.67° C | 98% | 1006.3 hPa | - | - | - | - |
| 1778050860 | 11.67° C | 97% | 1006.3 hPa | - | - | - | - |
| 1778050288 | 11.67° C | 99% | 1006.2 hPa | - | - | - | - |
| 1778049715 | 11.67° C | 98% | 1006.2 hPa | - | - | - | - |
| 1778049142 | 11.11° C | 98% | 1006.1 hPa | - | - | - | - |
| 1778048573 | 11.11° C | 98% | 1006.1 hPa | - | - | - | - |
| 1778047996 | 11.67° C | 96% | 1006 hPa | - | - | - | - |
| 1778047426 | 11.67° C | 96% | 1006.2 hPa | - | - | - | - |
| 1778046848 | 11.67° C | 97% | 1006.3 hPa | - | - | - | - |
| 1778046277 | 11.67° C | 97% | 1006.2 hPa | - | - | - | - |
| 1778045704 | 11.67° C | 97% | 1006.3 hPa | - | - | - | - |
| 1778045132 | 12.22° C | 96% | 1006.3 hPa | - | - | - | - |
| 1778044562 | 12.22° C | 97% | 1006.3 hPa | - | - | - | - |
| 1778043988 | 12.22° C | 96% | 1006.3 hPa | - | - | - | - |
| 1778043413 | 12.22° C | 97% | 1006.4 hPa | - | - | - | - |
| 1778042842 | 12.22° C | 97% | 1006.6 hPa | - | - | - | - |
| 1778042266 | 12.22° C | 97% | 1006.7 hPa | - | - | - | - |
| 1778041693 | 12.22° C | 96% | 1006.9 hPa | - | - | - | - |
| 1778041120 | 12.22° C | 96% | 1007.2 hPa | - | - | - | - |
| 1778040549 | 12.22° C | 97% | 1007.1 hPa | - | - | - | - |
| 1778039975 | 12.22° C | 96% | 1007.2 hPa | - | - | - | - |
| 1778039403 | 12.78° C | 95% | 1007.1 hPa | - | - | - | - |
| 1778038832 | 12.22° C | 96% | 1007.1 hPa | - | - | - | - |
| 1778038260 | 12.22° C | 96% | 1006.9 hPa | - | - | - | - |
| 1778037688 | 12.22° C | 96% | 1006.9 hPa | - | - | - | - |
* Rain since midnight (hover to see other rain measurements)
** Current wind speed in m/s (hover to see current wind gust speed)